This demonstration page uses our WeatherBlox Daily Observations layout. Learn more.

Left ArrowRight Arrow

Hourly Observations for March 8, 2021

Temp ( °F °C ) Dew Point ( °F °C ) Humidity (%) Winds ( mph kmh ) Pressure ( in mb ) Visibility ( mi km ) Precip ( " mm )
12:54 am 00:54 Clear 50 10 35 1.7 57 57 SSW 7 11 30.17 1022 10 16.0934 0 0
1:54 am 01:54 Clear 50 10 34 1.1 54 54 SSW 7 11 30.18 1022 10 16.0934 0 0
2:54 am 02:54 Clear 43 6.1 32 0 65 65 SSW 5 7 30.18 1022 10 16.0934 0 0
3:54 am 03:54 Clear 44 6.7 32 0 63 63 SSE 3 6 30.17 1022 10 16.0934 0 0
4:54 am 04:54 Clear 40 4.4 31 -0.6 70 70 SSE 3 6 30.18 1022 10 16.0934 0 0
5:54 am 05:54 Clear 40 4.4 31 -0.6 70 70 Calm 30.2 1023 10 16.0934 0 0
6:54 am 06:54 Sunny 38 3.3 30 -1.1 73 73 SSE 6 9 30.21 1023 10 16.0934 0 0
7:54 am 07:54 Sunny 43 6.1 34 1.1 71 71 S 6 9 30.22 1023 10 16.0934 0 0
8:54 am 08:54 Sunny 50 10 33 0.6 52 52 S 9 15 30.23 1024 10 16.0934 0 0
9:54 am 09:54 Sunny 57 13.9 31 -0.6 37 37 SSW 9 15 30.22 1023 10 16.0934 0 0
10:54 am 10:54 Sunny 60 15.6 33 0.6 36 36 S 10 17 30.2 1023 10 16.0934 0 0
11:54 am 11:54 Sunny 64 17.8 34 1.1 33 33 SSE 9 15 30.18 1022 10 16.0934 0 0
12:54 pm 12:54 Sunny 67 19.4 35 1.7 31 31 S 8 13 30.16 1021 10 16.0934 0 0
1:54 pm 13:54 Sunny 71 21.7 37 2.8 29 29 SSE 16 26 30.11 1020 10 16.0934 0 0
2:54 pm 14:54 Sunny 74 23.3 38 3.3 27 27 S 18 30 30.09 1019 10 16.0934 0 0
3:54 pm 15:54 Sunny 73 22.8 37 2.8 27 27 SSW 18 30 30.07 1018 10 16.0934 0 0
4:54 pm 16:54 Sunny 71 21.7 37 2.8 29 29 S 22 35 30.06 1018 10 16.0934 0 0
5:54 pm 17:54 Sunny 68 20 36 2.2 31 31 S 17 28 30.07 1018 10 16.0934 0 0
6:54 pm 18:54 Clear 64 17.8 37 2.8 37 37 S 15 24 30.06 1018 10 16.0934 0 0
7:54 pm 19:54 Clear 60 15.6 37 2.8 42 42 S 12 19 30.08 1019 10 16.0934 0 0
8:54 pm 20:54 Clear 59 15 38 3.3 46 46 SSE 12 19 30.07 1018 10 16.0934 0 0
9:54 pm 21:54 Clear 57 13.9 38 3.3 49 49 SSE 15 24 30.06 1018 10 16.0934 0 0
10:54 pm 22:54 Clear 59 15 39 3.9 48 48 SSE 18 30 30.03 1017 10 16.0934 0 0
11:54 pm 23:54 Clear 58 14.4 38 3.3 48 48 S 16 26 30.02 1017 10 16.0934 0 0

Powered by AerisWeather